Theta_e
299 298 298 298 297 297 297 296 296 296 295 294 294 293 292 292 291 291 291 290 290 290 290 289 289 289 289 289 289 289 289 289 289 289 289 289 289 289 289 289 289 289 289 289 289 289 289 288 288 288 288 288 287 287 287 287 287 287 287 287 287 287
298 298 298 297 297 296 296 296 295 295 294 293 292 291 291 290 290 289 289 289 289 289 289 289 289 289 288 288 288 288 288 288 288 288 288 288 288 288 288 288 288 288 288 288 288 288 288 288 288 288 288 288 287 287 287 287 287 287 287 287 287 287
298 297 297 296 296 296 296 295 295 294 293 292 291 290 290 289 289 289 289 289 289 289 289 288 288 288 288 288 288 288 288 288 288 288 288 288 288 288 288 288 287 287 287 287 287 287 287 287 287 287 287 287 287 287 287 287 287 287 287 287 287 287
297 297 296 296 297 297 296 295 294 293 291 291 290 289 289 289 289 289 289 289 288 288 288 288 288 288 288 288 288 288 288 288 288 288 288 288 288 288 288 287 287 287 287 287 287 287 287 287 287 287 287 287 287 287 287 287 287 287 287 287 287 287
297 296 296 297 297 297 296 294 292 291 290 289 289 289 288 288 288 288 288 288 288 288 288 288 288 288 288 288 288 288 288 288 288 288 288 288 288 288 287 287 287 287 287 287 287 287 286 286 287 286 287 287 287 287 287 287 287 287 287 287 287 287
296 295 296 297 297 296 295 293 291 290 289 288 288 288 288 288 288 288 288 288 288 288 288 288 288 288 288 288 288 288 288 288 288 288 288 288 288 288 287 287 287 287 287 287 287 286 286 286 286 286 286 286 286 286 287 287 287 287 287 287 287 287
295 295 296 297 297 296 295 293 291 289 288 288 288 288 288 288 288 288 288 288 288 288 288 288 289 289 289 289 289 289 288 288 288 288 288 288 288 288 287 287 287 287 286 286 286 286 286 286 286 286 286 286 286 286 286 286 286 286 287 287 287 287
295 295 296 296 297 296 294 292 290 289 288 288 288 288 288 288 288 288 288 289 289 289 289 289 289 289 289 289 289 289 289 288 288 288 288 288 288 287 287 286 286 286 286 286 286 286 286 286 285 285 285 285 285 285 285 286 286 286 286 286 286 287
296 296 296 296 296 296 294 291 289 288 288 288 288 288 288 288 289 289 289 289 289 289 289 289 289 289 289 289 289 289 289 288 288 288 288 288 287 287 286 286 285 285 285 285 285 285 285 285 285 285 285 285 285 285 285 285 285 285 286 286 286 286
297 297 296 296 295 295 293 291 289 288 288 288 288 288 289 289 289 289 289 289 289 290 290 289 289 289 289 289 289 289 289 289 288 288 288 288 287 286 285 285 285 285 285 285 285 285 285 285 285 285 285 285 285 285 285 285 285 285 285 285 285 285
298 297 296 295 295 294 293 290 288 288 288 289 289 289 289 289 289 290 290 290 290 290 289 289 289 289 289 289 289 289 289 289 288 288 288 287 286 285 285 284 284 284 284 284 284 284 284 285 285 285 284 284 284 284 284 284 285 284 284 285 285 285
298 297 296 295 295 294 292 290 289 289 289 290 290 289 290 290 290 290 290 290 289 289 289 289 289 289 289 289 289 289 289 288 288 288 287 287 285 284 284 284 284 284 284 284 284 284 284 284 284 284 284 284 283 283 284 284 284 284 284 284 284 284
297 296 295 295 295 293 291 290 290 290 290 290 290 290 290 290 289 289 289 289 289 289 289 289 289 289 289 289 289 288 288 288 288 287 287 285 284 284 284 284 284 284 284 284 284 284 284 284 284 284 284 283 283 282 282 283 283 283 283 283 282 282
296 296 296 295 294 292 290 290 291 291 291 291 291 290 290 290 289 289 289 289 289 289 289 289 289 289 289 289 288 288 287 287 287 286 285 284 284 284 284 283 283 283 284 284 284 284 284 284 284 283 283 283 282 281 280 281 281 281 281 281 280 279
296 296 295 294 293 291 291 291 291 291 291 291 291 290 290 290 290 289 289 289 289 289 289 289 289 289 288 288 287 287 287 286 285 284 284 283 283 283 283 283 283 283 284 284 284 284 284 284 283 283 282 282 281 280 279 279 279 279 279 279 278 277
295 294 293 293 292 292 292 292 291 291 291 291 291 290 290 290 290 289 289 289 289 289 289 289 288 288 288 287 287 287 286 285 284 283 283 283 283 283 283 283 283 283 283 283 283 283 283 283 282 282 281 281 280 279 278 278 278 277 277 277 276 275
293 293 293 293 292 292 291 291 291 290 290 290 290 290 290 289 289 289 289 289 289 289 288 288 288 288 287 287 286 285 284 283 283 283 283 283 283 283 283 283 283 283 283 283 283 283 283 282 281 281 280 280 279 278 277 276 276 276 276 275 275 274
292 292 292 292 291 291 290 290 290 290 290 290 289 289 289 289 289 289 289 288 288 288 288 288 287 287 287 286 285 284 283 283 283 282 282 282 282 282 283 283 283 283 283 282 282 282 282 281 280 280 279 278 277 276 275 275 275 275 274 274 274 274
291 291 291 291 290 290 290 290 290 290 289 289 289 289 289 289 289 288 288 288 288 287 287 287 287 286 285 284 283 283 283 282 282 282 282 282 282 282 283 283 283 282 282 282 281 280 281 281 280 279 278 277 275 275 274 274 274 274 274 273 273 272
291 291 291 290 290 290 290 290 290 289 289 289 289 289 289 288 288 288 287 287 287 287 287 286 286 285 284 283 283 282 282 282 282 282 282 282 282 282 282 282 282 282 281 280 280 279 280 280 279 277 277 276 274 274 273 273 273 273 272 272 271 271
291 290 290 290 290 290 290 289 289 289 289 289 289 289 288 288 287 287 287 287 287 287 286 286 285 284 283 282 282 282 282 282 281 281 281 282 282 282 282 281 281 281 280 280 279 278 278 279 278 277 276 275 274 274 273 273 272 271 271 270 270 270
290 290 290 290 290 289 289 289 289 289 289 289 289 288 288 287 287 287 287 287 287 286 286 285 284 282 282 282 282 281 281 281 281 281 281 281 281 281 281 281 280 280 280 279 278 278 277 277 277 276 275 275 274 273 273 273 272 270 270 269 269 270
290 290 289 289 289 289 289 289 289 289 289 289 288 288 287 287 287 287 287 286 286 285 284 283 282 282 281 281 281 281 281 281 281 281 281 281 281 281 281 280 280 279 279 278 277 277 276 276 276 275 275 275 274 273 273 272 271 270 269 269 269 270
290 289 289 289 289 289 289 289 289 289 288 288 288 287 287 287 286 286 286 286 285 284 283 282 281 281 281 281 281 281 281 281 281 281 281 280 280 280 280 280 279 279 278 278 277 276 276 275 275 275 275 275 274 274 274 272 270 270 270 270 270 270
289 289 289 289 289 289 288 288 288 288 288 288 287 287 287 286 286 286 286 285 284 283 282 281 281 281 281 280 280 280 281 281 280 280 280 280 280 280 280 279 278 278 277 277 276 276 275 275 275 275 275 275 275 275 274 272 271 270 270 270 271 271
289 289 289 289 288 288 288 288 288 288 288 287 287 287 286 286 286 285 285 285 284 282 281 281 281 280 280 280 280 280 280 280 280 280 280 279 279 279 279 279 278 277 276 276 276 276 276 275 275 276 276 275 275 274 273 271 271 271 271 271 271 272
289 289 289 289 288 288 288 288 288 288 287 287 286 286 286 286 285 285 285 284 283 281 281 281 280 280 280 279 280 280 280 280 280 280 279 279 279 279 278 278 277 276 276 276 276 276 276 275 275 276 275 274 273 272 271 271 272 272 272 272 272 272
289 289 289 288 288 288 288 288 288 287 287 286 286 286 286 285 285 285 284 283 281 281 281 280 280 280 279 279 279 280 280 279 279 279 279 279 278 278 277 277 276 275 276 276 276 275 275 274 274 275 274 272 271 271 271 272 271 272 272 272 273 273
289 289 289 288 288 288 288 288 287 287 286 286 286 285 285 285 285 284 283 282 281 280 280 280 280 279 279 279 279 279 279 279 279 279 279 278 278 277 277 276 276 275 276 275 274 274 274 274 274 273 272 271 271 271 271 271 271 272 272 273 273 274
289 288 288 288 288 288 288 287 287 286 286 286 285 285 285 285 284 284 282 281 280 280 280 279 279 279 279 279 279 279 279 278 278 278 278 278 277 277 276 276 276 275 275 273 272 272 272 273 273 272 271 270 271 271 271 272 272 272 273 273 273 274
289 288 288 288 288 287 287 287 286 286 285 285 285 285 284 284 284 283 281 280 280 280 279 279 279 279 279 279 279 279 278 278 278 278 278 277 276 276 276 275 275 274 272 270 270 270 271 271 272 272 271 270 271 272 272 272 273 273 273 274 274 274
289 288 288 288 287 287 287 286 285 285 285 284 284 284 284 284 283 282 281 280 280 280 279 279 278 278 278 278 278 278 278 278 277 277 277 277 276 276 275 275 274 273 272 270 271 271 271 271 272 271 270 270 271 271 272 272 273 273 273 274 274 274
289 288 288 288 287 287 286 285 285 284 284 284 284 284 283 283 282 281 280 280 280 279 279 278 278 278 278 278 278 278 278 278 278 277 277 276 276 276 275 275 274 273 273 272 272 273 273 274 273 271 269 269 270 270 271 272 272 272 272 273 272 272
289 289 288 288 287 286 285 284 284 283 283 283 283 283 282 282 281 280 280 280 279 279 278 278 278 277 277 277 277 277 277 277 278 278 277 277 276 276 275 275 275 274 274 274 274 274 274 274 273 271 270 269 269 270 271 271 272 272 273 272 272 272
289 289 288 287 286 286 285 284 283 283 282 282 282 282 281 281 280 280 280 279 279 278 277 277 277 277 277 277 276 276 276 276 277 277 277 277 277 276 276 276 275 274 274 274 275 275 274 274 273 271 270 269 270 271 271 272 273 274 273 272 272 272
289 288 287 286 286 285 284 283 282 282 282 282 281 281 280 280 279 279 279 279 278 278 277 277 276 276 276 276 276 276 276 276 276 276 276 276 277 277 277 277 276 275 274 274 275 275 274 274 274 272 270 270 271 272 272 273 274 274 273 272 272 272
288 287 287 286 285 284 283 282 282 282 282 281 281 280 279 279 279 279 279 278 278 277 277 276 276 275 275 275 275 275 275 275 275 275 275 275 275 275 276 276 276 276 276 275 275 275 274 274 274 273 272 272 273 273 273 273 274 274 274 274 273 272
287 287 286 285 284 284 283 282 281 282 281 281 280 279 279 278 278 278 278 278 277 276 276 276 275 275 274 274 274 275 275 275 274 274 274 274 274 274 274 275 275 276 276 275 275 275 274 274 274 273 272 272 273 272 273 273 273 273 273 273 272 272
Wind_Speed
13 11 10 8 7 5 4 3 3 2 3 3 4 5 6 7 7 7 7 7 6 4 3 3 2 2 2 2 3 4 5 6 7 8 9 10 12 13 14 15 16 17 18 19 20 21 22 23 23 24 24 24 23 23 23 23 24 25 25 25 26 26
14 12 10 9 8 7 5 5 4 4 4 5 5 7 8 8 8 7 6 5 4 3 2 2 3 3 4 5 5 7 8 9 10 11 12 13 14 15 16 17 17 18 19 20 21 22 22 23 24 25 26 27 28 28 28 28 28 29 29 28 29 29
16 14 12 11 10 8 7 6 6 5 6 6 7 8 8 7 7 6 6 5 4 4 3 4 5 6 7 8 10 11 12 13 14 15 16 16 17 18 18 19 19 20 21 21 22 22 23 24 24 25 27 28 29 30 31 32 33 34 35 34 34 33
18 16 14 12 10 8 8 8 8 8 9 9 10 9 9 8 7 6 5 4 3 4 5 7 8 10 11 12 13 15 15 16 17 18 19 19 20 21 21 22 23 23 23 23 24 24 24 25 26 27 29 30 31 32 32 33 35 36 38 39 39 39
19 17 15 12 10 10 10 9 9 10 11 11 10 9 8 6 5 3 3 4 6 8 9 11 12 13 15 16 17 18 19 20 21 22 22 23 23 23 24 25 26 27 27 28 28 29 29 29 30 30 31 33 34 35 35 36 37 38 39 40 41 43
19 18 16 13 12 11 10 10 11 12 11 10 9 8 6 5 3 3 5 7 8 10 11 13 14 16 17 19 20 21 23 24 24 25 26 26 26 27 27 28 28 29 30 31 32 33 34 35 36 36 37 38 38 39 40 40 41 41 42 43 43 44
21 19 17 14 13 12 12 12 13 13 11 11 10 8 6 5 4 5 7 9 10 12 14 15 16 18 19 21 22 24 25 26 27 27 28 28 29 29 30 30 31 31 32 33 35 36 37 38 40 41 42 42 43 44 44 44 45 45 46 46 47 47
21 20 18 16 14 14 14 14 14 13 12 11 9 7 6 5 7 9 11 12 14 16 17 18 19 20 22 23 25 27 28 29 29 29 30 30 31 31 31 32 32 33 34 35 36 37 39 40 42 43 44 45 45 46 47 47 48 49 49 50 50 50
22 21 19 17 16 15 15 15 14 13 12 10 8 6 6 8 10 12 14 16 18 19 20 21 22 23 25 26 28 30 32 32 33 32 32 32 32 32 33 33 34 35 36 37 38 40 41 42 43 44 45 45 46 47 48 50 51 51 52 52 53 53
22 20 19 19 17 17 16 14 13 12 10 9 7 7 9 11 13 15 17 19 21 22 23 23 24 25 27 28 30 32 34 35 36 35 34 34 34 34 34 35 36 37 38 39 40 41 42 43 43 44 45 46 47 48 49 51 52 53 54 55 56 56
21 19 19 19 18 17 15 13 13 11 10 9 8 10 11 13 15 17 19 21 23 24 24 25 26 27 28 30 32 34 37 38 37 36 36 35 35 35 36 37 39 40 40 41 42 42 42 43 43 44 44 46 47 48 50 51 53 55 56 57 59 59
21 19 18 17 17 16 15 14 12 11 10 10 11 12 14 15 17 19 21 23 24 25 26 27 28 29 30 32 34 37 38 39 38 36 35 35 35 36 38 39 40 41 42 42 42 42 42 43 43 44 45 45 47 49 51 53 54 55 57 59 60 61
19 18 17 17 16 16 15 14 12 12 12 13 14 16 17 19 20 22 23 24 25 27 27 28 29 30 32 34 37 39 39 38 37 36 35 35 36 38 39 40 41 42 43 43 43 43 43 44 44 45 46 47 48 49 51 53 55 56 57 58 59 60
17 17 17 17 16 16 16 15 13 14 16 17 19 20 21 22 23 24 25 26 27 28 28 29 30 32 34 37 38 39 38 37 36 35 36 37 38 39 40 41 42 42 43 43 43 44 45 46 46 47 47 48 49 48 49 52 54 55 56 56 56 56
16 17 17 17 16 16 16 15 16 18 20 22 23 24 24 25 25 26 27 27 28 28 29 30 32 35 37 38 38 37 36 36 35 36 38 39 40 41 41 42 42 43 42 43 43 44 46 47 47 48 48 48 48 47 47 49 51 52 53 53 52 51
16 17 18 18 18 17 17 18 20 21 23 24 25 25 25 25 25 25 26 27 27 29 30 33 35 37 37 37 36 36 35 35 36 38 39 39 40 41 42 43 43 43 43 44 45 46 47 47 47 47 47 47 47 46 45 46 48 49 49 49 49 48
18 19 19 19 19 19 19 20 20 21 22 23 22 22 22 22 23 24 24 25 27 29 31 34 35 36 36 36 35 35 35 36 38 38 38 39 40 41 42 42 43 43 44 45 46 47 48 47 46 46 46 46 45 44 44 45 46 47 47 47 46 46
16 17 17 18 19 20 20 20 20 20 20 21 20 20 21 21 22 23 24 25 27 28 30 32 34 34 34 34 34 35 36 37 38 38 39 40 40 41 41 41 42 43 44 45 46 47 48 47 45 45 45 44 43 42 42 43 44 45 45 45 44 43
15 15 16 18 19 20 20 20 20 20 21 21 21 22 22 22 23 23 24 26 27 28 30 32 33 33 33 33 34 35 37 38 38 38 38 40 40 41 41 41 42 43 44 45 45 45 47 47 45 44 44 43 41 40 40 41 42 43 43 43 41 41
16 17 18 19 19 20 20 21 21 21 22 23 22 23 23 23 23 24 25 26 28 29 31 32 32 32 32 33 35 36 37 37 37 38 38 39 40 40 41 42 43 44 44 44 44 44 45 46 44 42 42 41 38 37 38 39 40 40 40 40 39 39
18 19 20 20 20 21 21 22 22 22 23 23 23 24 24 23 24 25 26 28 29 30 32 32 32 33 33 34 35 36 36 36 36 37 38 38 39 40 41 42 43 44 44 43 43 42 42 44 43 41 40 40 37 35 35 36 37 37 37 38 38 38
20 21 21 21 21 22 22 23 23 24 24 25 25 25 24 25 26 27 27 28 29 30 31 31 32 33 34 35 35 35 35 35 36 37 37 38 39 40 41 42 43 44 44 42 42 41 40 41 42 40 38 38 35 33 32 33 34 35 36 36 37 38
21 21 20 20 21 22 23 24 25 26 26 26 26 26 26 27 27 27 28 28 28 29 30 31 32 33 33 34 34 34 35 35 35 36 36 37 39 40 41 43 43 44 44 42 41 40 38 37 38 38 36 35 34 31 30 30 31 32 35 36 37 38
23 22 21 22 22 23 24 26 27 27 27 27 27 27 27 28 28 28 28 28 28 29 30 31 32 33 33 33 33 34 34 34 34 35 35 36 38 40 41 42 42 43 43 42 40 38 36 35 34 35 34 34 33 31 28 28 29 30 32 36 37 39
24 23 23 24 24 25 26 27 28 29 29 29 28 28 29 28 28 29 28 28 29 30 30 31 32 32 32 32 32 33 34 34 34 34 35 36 38 39 41 41 41 42 42 42 40 37 36 34 32 31 31 32 31 29 28 28 28 28 31 34 37 39
24 24 24 25 26 27 28 29 30 30 30 30 29 29 29 29 29 29 28 29 30 30 31 32 31 31 31 31 31 32 33 33 33 34 34 35 36 38 40 41 40 40 40 40 40 38 36 35 33 31 28 28 29 30 29 29 28 28 30 34 37 38
25 25 26 27 28 29 29 30 31 31 31 30 29 29 29 29 29 29 29 29 30 30 31 32 31 30 30 30 30 32 32 32 33 33 34 35 35 37 39 39 38 38 37 38 39 39 38 37 36 34 31 30 32 33 31 30 30 30 31 35 38 39
27 27 27 28 29 30 31 31 32 32 31 30 29 30 30 30 29 29 29 29 29 30 31 32 31 30 29 29 29 30 30 31 32 33 34 34 34 35 37 37 36 36 36 37 38 39 39 39 38 37 36 34 34 34 33 34 34 35 36 38 40 41
28 27 27 29 30 30 31 32 32 31 31 30 30 30 30 30 30 30 29 29 29 30 31 31 31 30 29 29 29 29 29 29 30 32 33 33 33 34 35 35 35 35 35 37 37 38 39 39 39 38 37 36 36 36 38 39 40 41 42 43 44 43
27 26 27 28 29 31 32 32 32 32 31 30 31 31 30 30 30 30 29 29 29 30 31 31 30 30 29 29 28 28 28 28 29 31 32 31 31 33 34 34 35 35 34 35 36 37 38 38 38 38 37 37 37 38 39 40 41 42 42 43 43 44
25 24 25 27 29 31 33 33 32 32 31 31 31 31 30 30 30 30 29 29 30 31 31 30 30 29 29 29 28 28 28 28 28 30 31 30 29 30 32 33 33 32 31 31 32 34 35 37 37 36 34 34 36 36 37 37 37 38 38 39 39 40
24 24 25 27 29 32 33 33 32 32 31 31 31 30 30 30 30 29 29 29 30 30 30 30 29 28 28 28 28 29 29 27 26 26 29 30 29 27 27 28 28 27 26 27 29 29 30 33 34 32 31 33 34 34 34 34 33 33 35 36 37 37
24 24 25 27 30 32 33 32 31 31 31 31 30 30 30 29 29 29 29 29 30 30 30 30 29 28 28 27 28 29 31 30 27 23 23 26 28 26 24 24 24 23 22 23 26 27 28 29 30 30 30 31 31 32 32 32 32 33 34 35 35 35
26 26 27 29 31 32 32 31 30 30 30 30 29 29 29 29 29 29 28 29 30 30 29 29 29 28 28 28 28 28 30 32 32 28 22 20 22 23 24 23 22 21 20 20 23 26 27 28 28 28 28 28 30 31 31 32 33 34 34 34 33 33
27 27 28 30 31 31 31 30 29 30 30 29 29 29 28 28 28 28 28 29 30 29 29 28 28 28 27 27 28 28 28 29 31 32 29 24 21 19 18 18 19 20 20 20 21 24 26 27 27 26 26 28 30 31 31 32 32 32 31 31 30 29
28 28 29 30 31 31 31 29 28 29 30 29 29 28 27 26 27 27 28 29 29 29 28 27 27 27 27 27 27 28 28 28 28 29 30 30 27 23 18 15 14 17 20 22 22 23 25 26 26 26 27 29 31 31 31 32 31 29 26 25 25 26
29 29 30 30 31 31 30 28 28 29 30 29 29 28 26 26 26 27 27 28 28 28 28 27 26 26 26 27 27 27 27 27 26 26 26 27 27 25 22 17 14 14 18 22 24 24 25 26 25 26 28 30 30 30 30 30 29 27 24 23 23 25
29 29 29 30 31 31 29 28 28 30 30 30 29 27 26 26 26 26 27 27 27 27 27 26 26 26 26 26 26 26 26 25 25 24 24 23 23 23 22 20 18 16 17 20 22 23 24 24 24 25 27 29 28 28 29 29 29 28 26 24 23 24
Wind_Direction
183 181 180 180 176 180 180 173 173 170 167 165 167 180 187 191 193 194 198 198 201 208 210 218 236 260 283 297 305 300 298 302 306 311 312 311 311 310 311 310 310 310 310 310 311 312 313 315 318 319 319 320 321 321 320 318 317 314 313 314 313 314
191 190 191 193 192 196 198 199 202 194 189 188 186 190 192 193 193 192 198 202 207 223 237 260 283 304 312 314 317 314 315 317 318 318 316 314 313 313 312 312 311 310 309 309 309 309 309 310 312 313 313 314 315 316 316 315 314 312 310 309 308 309
198 196 198 201 203 207 210 213 214 207 202 200 196 198 199 199 201 204 215 227 240 263 282 304 317 327 331 332 332 332 332 330 327 325 322 321 321 319 317 316 315 314 312 311 311 310 310 310 311 312 311 311 310 311 311 311 310 309 309 308 306 305
204 204 206 210 213 220 223 222 220 212 207 205 203 206 209 212 218 226 241 261 291 315 329 338 341 341 338 337 336 334 334 331 328 325 322 321 320 318 317 316 315 315 313 312 311 310 310 309 309 309 309 308 307 306 306 306 306 305 305 305 305 304
211 213 215 220 224 229 231 226 220 213 209 209 210 214 221 228 238 259 301 329 338 339 341 341 339 337 334 332 331 330 330 328 326 324 321 320 318 317 316 316 315 314 314 313 313 312 311 310 309 308 307 306 305 304 303 303 302 302 302 301 301 301
216 217 219 226 230 233 234 229 223 218 214 215 219 226 232 240 263 306 328 333 332 330 329 329 327 327 326 326 327 327 327 325 323 322 320 318 317 316 315 315 315 314 314 314 314 313 313 313 312 311 310 308 307 306 304 303 302 301 300 300 299 299
219 220 224 231 234 236 236 232 228 223 218 220 226 232 237 253 286 312 318 318 318 317 317 318 318 320 322 323 326 327 326 325 323 320 319 317 315 314 314 313 313 313 313 313 313 313 313 313 312 312 311 310 309 308 307 306 304 303 301 300 299 298
222 227 232 237 237 237 237 234 230 224 220 224 232 239 254 283 302 309 311 311 310 310 311 313 314 317 319 322 324 326 326 324 322 319 317 315 314 313 312 312 312 312 312 311 312 311 311 311 310 310 309 309 309 309 308 307 305 304 303 301 300 299
228 233 237 240 239 238 237 233 228 225 225 231 241 258 279 298 304 306 307 306 305 306 309 311 312 314 317 319 322 323 323 322 319 317 315 313 312 311 311 311 311 311 311 310 310 309 309 309 308 308 308 308 308 308 307 306 306 305 304 303 302 300
232 236 237 238 236 235 235 232 227 228 232 241 256 277 289 296 298 299 300 299 300 302 304 307 307 309 311 315 317 319 318 318 316 314 312 311 311 310 310 310 309 308 308 307 307 307 307 306 306 306 306 307 307 307 306 305 305 304 303 302 301 300
236 238 235 233 233 235 236 232 229 231 238 250 264 274 280 284 285 287 289 290 293 295 298 300 302 304 307 310 312 314 313 313 312 311 310 309 308 308 308 307 306 305 304 304 304 304 304 304 304 305 305 306 305 305 304 303 302 302 301 300 299 298
238 237 232 232 236 240 237 231 231 238 246 255 261 264 268 271 274 277 279 282 286 289 292 295 298 300 302 305 307 308 309 309 308 307 306 305 305 305 304 303 303 303 303 303 303 303 303 303 303 304 305 305 305 304 303 302 301 300 299 299 298 297
232 231 231 236 241 240 234 230 235 245 251 255 257 259 262 265 267 270 273 277 281 284 288 291 293 295 298 300 303 304 306 306 306 305 304 303 303 302 301 301 302 302 303 304 304 304 304 304 305 305 305 305 305 304 303 302 301 300 299 297 296 295
228 231 235 239 240 235 230 233 241 249 254 257 258 258 258 260 263 267 270 274 277 280 284 287 289 292 295 298 301 303 304 304 304 303 302 302 301 301 301 302 302 303 304 304 304 304 305 305 306 307 307 307 307 306 305 304 302 301 299 297 296 296
230 236 238 237 234 232 233 240 247 252 255 257 257 257 258 261 264 268 270 273 277 280 284 287 290 293 296 299 301 302 302 302 301 301 301 301 301 302 302 304 304 305 305 305 305 306 306 307 307 308 309 308 308 307 306 304 302 300 299 298 298 297
234 234 233 232 233 235 239 243 248 252 255 257 258 259 261 264 267 270 272 276 280 284 288 290 292 295 297 299 300 300 300 300 299 300 301 301 302 303 304 305 306 306 306 307 308 307 307 307 308 309 309 309 309 309 307 305 302 300 299 298 298 297
235 233 232 234 235 236 238 243 248 254 257 259 260 261 264 267 270 273 275 279 283 287 289 291 293 295 298 299 298 298 298 299 300 301 302 303 304 305 306 306 307 307 308 309 309 308 308 309 310 311 312 312 312 311 309 305 302 300 299 298 298 298
242 240 238 239 239 238 241 246 252 257 258 259 260 262 265 268 269 272 276 281 285 289 291 292 294 296 297 296 296 297 298 300 301 302 304 305 306 306 306 307 308 308 309 309 309 309 309 310 313 314 315 315 314 312 309 306 303 301 299 298 299 299
245 243 243 244 244 246 250 254 257 258 258 258 259 261 264 266 268 274 280 285 289 292 293 295 296 296 295 295 296 298 300 302 303 304 306 306 306 307 308 308 309 309 309 310 310 310 311 313 317 318 317 316 315 312 308 305 302 300 299 299 300 301
245 245 247 249 251 255 258 259 260 258 257 257 257 259 260 264 271 279 286 290 294 295 296 297 296 295 294 296 298 300 302 303 305 306 307 307 307 308 309 310 310 310 310 310 311 312 314 316 319 320 317 316 314 310 306 303 300 299 299 300 301 301
249 250 251 254 257 260 261 261 260 258 257 256 255 256 259 267 278 286 291 294 296 296 296 296 295 295 296 298 301 302 303 305 306 308 308 309 309 310 310 311 310 310 311 312 313 315 317 319 320 319 317 315 312 308 304 301 300 299 299 300 301 302
251 252 256 258 262 264 263 262 261 258 256 255 254 257 264 275 285 290 292 294 295 295 295 294 293 295 297 300 302 303 305 307 308 309 309 310 311 311 311 311 311 311 311 313 315 318 320 320 319 318 316 313 310 307 304 301 300 301 301 302 304 305
255 258 261 263 264 264 263 263 261 258 256 255 256 262 271 281 288 291 293 294 294 294 293 292 293 296 300 302 303 304 306 309 309 310 311 312 312 312 311 311 311 311 312 315 318 320 321 320 318 317 314 311 307 306 305 304 304 305 304 304 305 305
257 260 264 265 265 265 264 263 261 259 258 258 261 267 277 284 289 291 292 294 294 293 292 292 295 299 301 303 304 306 307 309 310 311 312 312 312 312 311 311 311 312 314 316 319 321 321 320 317 314 312 309 307 308 310 311 311 308 303 301 301 300
258 261 264 265 265 265 265 264 262 261 260 261 265 272 280 286 289 290 292 294 293 292 292 295 299 301 302 304 306 307 308 310 311 311 312 312 312 311 311 311 312 313 315 318 320 321 320 318 316 314 312 308 308 311 316 318 315 308 301 297 297 298
256 259 261 262 263 265 265 264 264 263 262 264 269 276 283 287 289 290 292 292 291 291 293 297 301 302 303 305 307 308 309 310 311 311 312 311 311 311 311 311 313 315 317 318 319 319 319 319 319 318 315 314 316 320 322 320 316 311 305 299 297 298
256 257 259 262 263 265 265 264 264 263 263 266 272 279 284 287 289 290 292 291 290 292 296 299 302 303 304 306 308 309 310 310 311 311 311 311 311 311 311 312 314 316 317 318 319 319 321 323 323 324 326 328 327 325 323 321 319 318 313 305 302 303
253 255 259 262 264 265 265 264 263 263 264 268 275 280 285 287 289 291 291 290 290 294 298 301 302 303 305 307 309 309 309 310 311 311 311 311 312 311 311 312 314 316 318 320 321 322 324 326 327 328 330 329 326 323 324 324 322 319 316 311 308 307
251 256 261 265 265 265 264 263 262 262 265 271 277 281 285 288 290 291 291 290 292 296 300 301 302 303 305 307 308 309 308 309 310 310 310 312 312 311 311 312 315 319 322 324 325 325 325 326 327 327 327 326 325 324 323 320 317 316 314 312 310 309
252 259 265 267 266 264 262 261 261 262 266 272 277 281 285 287 289 290 290 291 294 298 300 301 302 303 306 307 308 308 308 309 310 309 309 311 311 310 311 314 318 323 326 326 324 323 323 324 324 325 324 323 321 319 317 314 312 312 311 310 310 310
258 266 270 268 265 262 260 259 260 263 267 273 277 280 284 286 288 289 289 291 295 298 299 300 301 304 306 307 308 307 307 308 309 309 309 310 311 312 314 318 322 326 326 321 317 318 319 319 319 321 320 317 314 312 311 310 308 308 308 307 307 307
264 271 271 269 265 261 259 259 260 264 269 273 277 280 283 285 286 287 288 292 295 297 299 299 301 304 306 307 307 306 306 306 307 309 310 310 310 313 316 319 323 324 321 315 314 316 316 314 316 320 318 313 311 310 309 308 307 306 305 303 302 302
266 271 272 271 267 262 260 260 262 266 270 273 277 279 281 283 285 285 288 292 295 297 298 299 302 304 306 307 307 306 306 306 306 306 307 307 308 312 315 318 320 321 321 319 318 319 321 322 324 324 320 316 315 314 313 312 309 304 301 300 301 301
267 273 274 271 267 263 261 261 264 268 271 274 276 278 280 282 284 285 288 292 295 296 298 299 302 305 306 306 306 305 305 306 306 306 305 303 305 310 315 318 319 320 323 327 326 325 329 332 331 329 326 324 322 319 315 310 305 302 302 303 303 303
267 272 271 267 264 263 261 263 266 269 272 274 276 278 280 281 283 285 288 292 295 296 297 299 301 303 304 304 305 304 305 306 307 308 309 307 304 305 308 313 319 325 331 334 333 332 333 333 333 335 334 328 322 318 315 311 311 312 310 308 307 307
265 267 266 264 264 263 263 265 268 270 273 275 277 278 280 281 283 285 289 292 295 295 296 298 299 301 302 302 303 303 304 305 306 307 309 311 312 312 309 305 309 322 332 336 336 335 335 335 337 341 337 330 326 326 323 320 320 319 313 309 312 316
262 264 264 264 264 264 265 267 269 271 274 276 276 278 280 281 283 286 289 292 294 294 295 297 298 299 300 300 301 301 302 303 304 305 308 312 316 319 321 319 312 314 326 332 334 336 336 336 339 342 339 336 335 335 331 328 328 326 322 320 321 322
261 263 264 264 264 264 266 268 269 271 274 275 277 279 280 281 283 286 289 291 291 292 293 295 296 297 298 298 299 300 300 300 302 304 307 311 315 319 324 327 326 326 329 331 333 335 335 335 339 343 342 341 343 343 341 341 341 339 337 334 330 327